[[{"header":{"parameterUnit":"m.s-1","parameterCategory":1,"la1":30.2991,"la2":30.254,"lo1":-89.0895,"lo2":-89.0444,"dy":0.0017,"dx":0.0017,"nx":28,"ny":28,"refTime":"2025-08-29T03:00:00:Z","depth":0,"parameterNumber":2,"parameterNumberName":"U-component_of_WINDS"},"data":[0,0,0,0,0,0,0,0,0,0,0,0,0,0,0,0,0,0,0,0,0,0,0,0,0,0,0,0,0,0,0,0,0,0,0,0,0,0,0,0,0,0,0,0,0,0,0,0,0,0,0,0,0,0,0,0,0,0,1.6601,1.6602,0,1.6695,1.6696,1.6697,1.6687,1.6685,1.6684,1.6682,1.6783,1.6787,1.6791,0,0,0,0,0,0,0,0,0,0,0,0,0,1.6419,1.6423,1.6601,1.6602,1.6603,1.6695,1.6696,1.6697,1.6687,1.6685,1.6683,1.6682,1.6782,1.6787,1.6792,0,0,0,0,0,0,0,0,0,0,0,0,0,1.6504,1.6424,1.6601,1.6609,1.6611,1.6695,1.6696,1.6698,1.6687,1.6685,1.6683,1.6681,1.678,1.6786,1.6792,1.6875,0,0,1.6811,1.6814,0,0,0,0,0,0,0,0,1.65,1.6511,1.6607,1.6609,1.6611,1.6677,1.6669,1.6757,1.6688,1.6659,1.6682,1.668,1.675,1.6758,1.6781,1.688,1.6884,1.6812,1.6815,1.6818,1.682,0,0,0,0,0,0,0,1.6494,1.6507,1.6638,1.6608,1.6611,1.661,1.662,1.6686,1.6716,1.6661,1.666,1.6671,1.6751,1.6775,1.6783,1.6886,1.6811,1.6817,1.6821,1.6823,1.7061,1.7064,0,0,0,0,0,0,1.6485,1.6502,1.6635,1.6641,1.6548,1.6615,1.6626,1.6658,1.6715,1.6722,1.6673,1.667,1.6766,1.6776,1.6787,1.689,1.6818,1.6824,1.6827,1.7059,1.7062,1.7065,0,0,0,0,0,0,1.6481,1.6497,1.6632,1.6572,1.6589,1.6621,1.6657,1.6661,1.6685,1.6724,1.673,1.6692,1.6764,1.6778,1.6854,1.6893,1.6826,1.6832,1.7055,1.706,1.7063,1.7096,0,0,0,0,0,0,1.6476,1.6496,1.6526,1.6572,1.6592,1.6695,1.6659,1.6664,1.6696,1.6693,1.6744,1.675,1.6764,1.6845,1.686,1.6901,1.6837,1.7052,1.7057,1.7062,1.7091,1.71,1.7108,0,0,0,0,0,1.6469,1.6531,1.6527,1.6543,1.663,1.6697,1.6709,1.6722,1.6699,1.6731,1.6756,1.6749,1.6886,1.6852,1.687,1.6913,1.705,1.7056,1.7062,1.7087,1.7098,1.7108,0,0,0,0,0,0,1.649,1.6538,1.6533,1.6612,1.6651,1.6695,1.6736,1.6732,1.6779,1.6775,1.6791,1.6803,1.6879,1.6903,1.6865,1.6998,1.6965,1.6975,1.6979,1.699,1.6998,1.6991,1.6842,0,0,0,0,0,1.6503,1.6552,1.6592,1.6657,1.6677,1.6703,1.6733,1.674,1.6781,1.6797,1.6828,1.687,1.6923,1.6958,1.7008,1.7095,1.7107,1.7133,1.7141,1.7148,1.7156,1.7207,1.722,1.7084,1.7084,1.7084,0,0,1.6532,1.6564,1.6594,1.6662,1.6693,1.6746,1.6717,1.6773,1.6813,1.6806,1.688,1.6904,1.6952,1.7034,1.7072,1.7057,1.7197,1.7156,1.7161,1.7166,1.7214,1.7227,1.7239,1.7088,1.7088,1.7087,0,0,1.6611,1.6639,1.6698,1.6729,1.6776,1.6793,1.6808,1.6854,1.6869,1.6943,1.694,1.6989,1.7079,1.7114,1.7144,1.7239,1.7235,1.7255,1.7299,1.7348,1.7359,1.7369,1.7405,1.7417,1.7263,1.7263,1.7263,0,1.6641,1.6718,1.6729,1.6786,1.6818,1.6814,1.6875,1.6906,1.6967,1.699,1.6972,1.7087,1.7118,1.721,1.7233,1.7257,1.7276,1.725,1.7356,1.7366,1.7375,1.741,1.7423,1.7266,1.7265,1.7265,1.7265,0,1.6754,1.6808,1.685,1.6909,1.6945,1.7004,1.7027,1.7062,1.7067,1.7087,1.7164,1.7202,1.7262,1.7284,1.7288,1.7377,1.7367,1.7352,1.732,1.739,1.7423,1.7437,1.7269,1.7268,1.7267,1.7267,0,0,1.6848,1.6913,1.6928,1.6956,1.7008,1.7051,1.7112,1.7169,1.7201,1.7244,1.7297,1.7374,1.7362,1.7395,1.7405,1.7447,1.7524,1.7428,1.743,1.7446,1.7627,1.7639,1.7654,1.7521,1.7524,1.7526,1.7624,0,1.6934,1.7038,1.7051,1.7145,1.7197,1.7195,1.7248,1.7287,1.7308,1.7357,1.7381,1.7436,1.7414,1.7435,1.7478,1.7505,1.7561,1.7498,1.7573,1.7576,1.7562,1.7671,1.7683,1.7773,1.7636,1.7639,1.764,0,1.7047,1.7093,1.7192,1.7239,1.7262,1.7309,1.7364,1.7409,1.7455,1.7468,1.7506,1.7511,1.7576,1.7541,1.7633,1.759,1.7622,1.7641,1.7645,1.7653,1.7613,1.7684,1.7802,1.7816,1.766,1.7659,1.7657,0,1.7109,1.7195,1.7266,1.729,1.7346,1.738,1.7405,1.7448,1.7483,1.7532,1.7555,1.7611,1.7642,1.7687,1.7708,1.7679,1.78,1.7765,1.7814,1.7814,1.784,1.7839,1.7967,1.7858,1.7858,1.7858,1.7857,0,1.7204,1.7265,1.7295,1.7339,1.7408,1.7424,1.7493,1.7517,1.7556,1.7607,1.7609,1.7657,1.768,1.7733,1.775,1.7825,1.7839,1.7853,1.7857,1.7854,1.7852,1.7875,1.787,1.7861,1.786,1.786,1.7859,0,1.7284,1.7306,1.7384,1.7431,1.7445,1.7494,1.7536,1.758,1.7601,1.7665,1.7681,1.7715,1.7777,1.7802,1.7878,1.789,1.7977,1.7975,1.7961,1.7963,1.8011,1.8007,1.816,1.8182,1.8057,1.8058,1.8059,0,1.7344,1.7391,1.7444,1.7477,1.7503,1.7557,1.7592,1.761,1.7648,1.7705,1.7743,1.7804,1.7854,1.7954,1.7987,1.8047,1.8048,1.8097,1.8056,1.8053,1.8051,1.8049,1.8055,1.8105,1.8106,1.8107,1.8108,0,1.7449,1.7458,1.7508,1.7563,1.7604,1.7649,1.7692,1.7719,1.7745,1.7787,1.785,1.7889,1.7967,1.8029,1.809,1.8119,1.812,1.8121,1.8136,1.8133,1.8124,1.8132,1.7984,1.8117,1.8116,1.8116,1.8115,1.8115,1.7523,1.7566,1.761,1.7666,1.77,1.7741,1.7785,1.7812,1.7864,1.7928,1.7936,1.8005,1.8052,1.8134,1.8166,1.8222,1.8209,1.823,1.8236,1.8241,1.8245,1.8114,1.8233,1.8232,1.8232,1.8232,1.8232,0,1.763,1.7659,1.771,1.777,1.7815,1.7809,1.7858,1.7896,1.7956,1.7999,1.8049,1.8123,1.8184,1.8222,1.8285,1.8322,1.8324,1.8338,1.8336,1.8344,1.8252,1.8234,1.8336,1.8336,1.8336,1.8336,1.8336,1.8335,1.7691,1.7764,1.7779,1.787,1.7898,1.7964,1.7992,1.8031,1.8066,1.8148,1.8198,1.8222,1.8265,1.8331,1.8388,1.8398,1.8422,1.8437,1.8446,1.836,1.835,1.8339,1.8323,1.8441,1.8442,1.8534,1.8535,1.8535]},{"header":{"parameterUnit":"m.s-1","parameterCategory":1,"la1":30.2991,"la2":30.254,"lo1":-89.0895,"lo2":-89.0444,"dy":0.0017,"dx":0.0017,"nx":28,"ny":28,"refTime":"2025-08-29T03:00:00:Z","depth":0,"parameterNumber":3,"parameterNumberName":"V-component_of_WINDS"},"data":[0,0,0,0,0,0,0,0,0,0,0,0,0,0,0,0,0,0,0,0,0,0,0,0,0,0,0,0,0,0,0,0,0,0,0,0,0,0,0,0,0,0,0,0,0,0,0,0,0,0,0,0,0,0,0,0,0,0,-2.2388,-2.2387,0,-2.2316,-2.2315,-2.2314,-2.2335,-2.2337,-2.2338,-2.234,-2.2259,-2.2255,-2.2252,0,0,0,0,0,0,0,0,0,0,0,0,0,-2.254,-2.2537,-2.2388,-2.2387,-2.2386,-2.2316,-2.2315,-2.2314,-2.2335,-2.2337,-2.2339,-2.2341,-2.226,-2.2256,-2.2252,0,0,0,0,0,0,0,0,0,0,0,0,0,-2.2471,-2.2536,-2.2388,-2.2388,-2.2388,-2.2316,-2.2315,-2.2313,-2.2335,-2.2337,-2.2339,-2.2341,-2.2261,-2.2256,-2.2251,-2.2172,0,0,-2.2235,-2.2232,0,0,0,0,0,0,0,0,-2.2475,-2.2465,-2.2389,-2.2388,-2.2387,-2.2337,-2.2339,-2.2266,-2.2334,-2.2355,-2.234,-2.2343,-2.2283,-2.2276,-2.2257,-2.2169,-2.2165,-2.2234,-2.2231,-2.2229,-2.2227,0,0,0,0,0,0,0,-2.248,-2.2469,-2.2359,-2.2388,-2.2387,-2.2391,-2.2383,-2.2325,-2.2306,-2.2353,-2.2354,-2.2346,-2.2282,-2.2262,-2.2255,-2.2164,-2.2234,-2.223,-2.2226,-2.2224,-2.2009,-2.2006,0,0,0,0,0,0,-2.2486,-2.2472,-2.2361,-2.2357,-2.2438,-2.2386,-2.2378,-2.2351,-2.2307,-2.2303,-2.2344,-2.2347,-2.227,-2.2261,-2.2252,-2.2158,-2.2229,-2.2224,-2.2221,-2.2011,-2.2008,-2.2005,0,0,0,0,0,0,-2.2489,-2.2476,-2.2364,-2.2415,-2.2401,-2.2381,-2.235,-2.2348,-2.2328,-2.2301,-2.2297,-2.2327,-2.2271,-2.226,-2.2193,-2.2156,-2.2221,-2.2216,-2.2014,-2.201,-2.2007,-2.1968,0,0,0,0,0,0,-2.2493,-2.2477,-2.2448,-2.2414,-2.2399,-2.2307,-2.2348,-2.2345,-2.2319,-2.2323,-2.2283,-2.2279,-2.2272,-2.2201,-2.2188,-2.2149,-2.2212,-2.2017,-2.2012,-2.2008,-2.1973,-2.1964,-2.1956,0,0,0,0,0,-2.2499,-2.2438,-2.2446,-2.2432,-2.2362,-2.2305,-2.2296,-2.2291,-2.2316,-2.2286,-2.2269,-2.228,-2.2162,-2.2194,-2.2179,-2.2139,-2.202,-2.2014,-2.2008,-2.1977,-2.1966,-2.1956,0,0,0,0,0,0,-2.2464,-2.2433,-2.2442,-2.2369,-2.234,-2.2309,-2.2271,-2.228,-2.2241,-2.2245,-2.224,-2.2231,-2.2162,-2.2144,-2.2179,-2.2061,-2.2094,-2.2085,-2.2075,-2.2065,-2.2056,-2.2062,-2.2208,0,0,0,0,0,-2.2449,-2.2407,-2.2382,-2.2319,-2.2305,-2.229,-2.2265,-2.2265,-2.2234,-2.2221,-2.2198,-2.2166,-2.2122,-2.2092,-2.205,-2.1971,-2.1963,-2.1936,-2.1928,-2.1921,-2.1913,-2.1871,-2.1859,-2.1987,-2.1987,-2.1987,0,0,-2.2415,-2.2393,-2.2366,-2.2312,-2.2289,-2.2245,-2.228,-2.2231,-2.2197,-2.2212,-2.2149,-2.2131,-2.2094,-2.2022,-2.1988,-2.2004,-2.1876,-2.1914,-2.1909,-2.1904,-2.1864,-2.1851,-2.1841,-2.1983,-2.1984,-2.1984,0,0,-2.2331,-2.231,-2.2257,-2.2235,-2.2201,-2.2192,-2.218,-2.2148,-2.2138,-2.2075,-2.2085,-2.2045,-2.1968,-2.1942,-2.1919,-2.1828,-2.1837,-2.1814,-2.177,-2.1728,-2.1718,-2.1709,-2.1677,-2.1665,-2.1807,-2.1806,-2.1806,0,-2.2292,-2.2228,-2.2228,-2.2179,-2.2155,-2.217,-2.2115,-2.2093,-2.2046,-2.2028,-2.2047,-2.1954,-2.1929,-2.1851,-2.183,-2.181,-2.1795,-2.1818,-2.172,-2.1711,-2.1703,-2.1672,-2.1659,-2.1804,-2.1804,-2.1805,-2.1805,0,-2.2182,-2.2137,-2.2098,-2.2056,-2.2028,-2.1976,-2.1967,-2.1938,-2.1941,-2.193,-2.1865,-2.1838,-2.1791,-2.1772,-2.1773,-2.1694,-2.1705,-2.1722,-2.1755,-2.1688,-2.1659,-2.1647,-2.18,-2.1801,-2.1802,-2.1803,0,0,-2.2072,-2.2033,-2.2018,-2.2,-2.1966,-2.193,-2.1879,-2.1836,-2.1811,-2.1779,-2.1736,-2.1673,-2.1689,-2.1663,-2.1661,-2.1625,-2.1555,-2.1646,-2.1646,-2.163,-2.1467,-2.1454,-2.144,-2.1562,-2.1559,-2.1558,-2.147,0,-2.1985,-2.1898,-2.1898,-2.1817,-2.1775,-2.179,-2.1746,-2.1719,-2.1708,-2.167,-2.1657,-2.1613,-2.1638,-2.1622,-2.1588,-2.1571,-2.1522,-2.1577,-2.152,-2.1518,-2.1528,-2.1425,-2.141,-2.1329,-2.1459,-2.1457,-2.1455,0,-2.1871,-2.1838,-2.1754,-2.1728,-2.171,-2.1671,-2.1632,-2.1596,-2.1566,-2.1561,-2.1533,-2.1537,-2.1485,-2.1521,-2.1448,-2.1486,-2.1462,-2.1451,-2.1447,-2.1441,-2.1482,-2.1415,-2.1302,-2.129,-2.1437,-2.1439,-2.144,0,-2.1799,-2.1734,-2.1676,-2.1659,-2.1627,-2.1599,-2.1584,-2.1556,-2.1531,-2.1497,-2.148,-2.1439,-2.1416,-2.1384,-2.1377,-2.1404,-2.1304,-2.1339,-2.1296,-2.1297,-2.1273,-2.1275,-2.1155,-2.126,-2.126,-2.126,-2.126,0,-2.1701,-2.1649,-2.1643,-2.1607,-2.1549,-2.155,-2.1492,-2.1478,-2.1454,-2.1415,-2.1425,-2.1388,-2.1381,-2.1342,-2.1336,-2.1276,-2.1266,-2.1259,-2.1258,-2.1258,-2.1258,-2.1241,-2.1246,-2.1257,-2.1257,-2.1258,-2.1259,0,-2.161,-2.1604,-2.1542,-2.1517,-2.151,-2.1468,-2.1447,-2.1412,-2.1403,-2.1354,-2.1342,-2.1327,-2.1282,-2.1272,-2.1217,-2.1214,-2.1143,-2.1147,-2.1154,-2.1154,-2.1111,-2.1115,-2.0976,-2.0957,-2.1075,-2.1073,-2.1073,0,-2.1547,-2.1508,-2.1481,-2.1457,-2.1441,-2.1401,-2.1377,-2.1376,-2.1349,-2.1314,-2.1283,-2.1239,-2.1204,-2.1131,-2.1114,-2.1073,-2.1076,-2.103,-2.1069,-2.1071,-2.1075,-2.1077,-2.1073,-2.1022,-2.1021,-2.102,-2.1019,0,-2.1437,-2.1437,-2.1402,-2.1367,-2.1338,-2.1309,-2.1282,-2.1261,-2.1256,-2.1226,-2.1181,-2.1154,-2.1101,-2.1057,-2.1016,-2.0999,-2.1007,-2.1007,-2.0995,-2.0994,-2.0999,-2.0995,-2.1132,-2.101,-2.1011,-2.1011,-2.1012,-2.1012,-2.1358,-2.1324,-2.13,-2.1262,-2.1242,-2.1217,-2.1184,-2.1172,-2.1136,-2.1094,-2.1095,-2.1046,-2.1018,-2.0965,-2.0946,-2.0906,-2.092,-2.0903,-2.0898,-2.0893,-2.089,-2.1007,-2.0899,-2.0899,-2.0899,-2.0899,-2.09,0,-2.1248,-2.1234,-2.1199,-2.1162,-2.1132,-2.1146,-2.1117,-2.109,-2.1048,-2.1023,-2.0989,-2.0938,-2.0897,-2.0878,-2.0837,-2.0809,-2.0812,-2.0798,-2.08,-2.0796,-2.0879,-2.0894,-2.0797,-2.0797,-2.0797,-2.0797,-2.0797,-2.0797,-2.1187,-2.1131,-2.1129,-2.1063,-2.105,-2.1004,-2.0986,-2.0963,-2.0943,-2.0887,-2.0854,-2.0843,-2.082,-2.0778,-2.074,-2.0736,-2.072,-2.0704,-2.0701,-2.0779,-2.079,-2.0799,-2.0813,-2.07,-2.07,-2.062,-2.062,-2.0619]}]]